星链-32117 (STARLINK-32117 )

导读 | 豆包AI

STARLINK-32117是美国SpaceX星链星座的一员,于2024年6月19日发射入轨,星链计划旨在构建全球卫星互联网星座,为全球范围提供高速互联网接入服务,这款卫星继承了星链卫星的设计特点,依托低轨轨道布局,降低通信延迟,助力全球网络覆盖,特别是服务偏远地区与特殊场景通信需求。

Basic Information
目录编号:
60076
目录名称:
STARLINK-32117
国际标识:
2024-113T
轨道中心:
EARTH
卫星名称:
星链-32117
卫星全名:
星链-32117 (STARLINK-32117 )
卫星状态:
已陨落 最后检测时间 2024-07-14
发射日期:
2024-06-19 UTC
国别 :
美国 (US)
星等 :
--
Orbit Information
数据来源 国际轨道数据
星历时间: 2024-07-14T19:08:30+0800
轨道信息已过期609天
半长轴: 6518.58km
偏心率: 0.0011381
轨道倾角: 53.139°
近地点辐角 0.312°
升交点赤经 282.807°
平近点角 70.083°
近地点: 133.026km
远地点: 147.864km
周期: 87.295分钟
每日圈数: 16.495798
Detailed Information
固有亮度:
5
最大亮度:
1.5
卫星平台:
Starlink v2.0 mini
覆盖范围:
全球
运营商:
太空探索技术公司
运营商所在国:
美国
制造商(研发单位):
太空探索技术公司
制造商所在国:
美国
使用方式:
暂无
Satellite Introduction
星链(Starlink)计划是由太空探索技术公司(SpaceX)提出的一个巨型低轨卫星互联网星座项目,计划在2019年至2024年间在太空搭建由约1.2万颗卫星组成的“星链”网络,其中1584颗将部署在地球上空550千米处的近地轨道,并从2020年开始工作。该卫星仍在工作。